Tracking 19485 objects as of 22-Jan-2019
HD Live streaming from Space Station
objects crossing your sky now

COSMOS 1320

Track COSMOS 1320 now!
10-day predictions
COSMOS 1320 is classified as:


NORAD ID: 12975
Int'l Code: 1981-116A
Perigee: 1,487.8 km
Apogee: 1,642.1 km
Inclination: 74.0 °
Period: 117.3 minutes
Semi major axis: 7935 km
RCS: 0.704 m2 (medium)
Launch date: November 28, 1981
Source: Commonwealth of Independent States (former USSR) (CIS)
Launch site: PLESETSK MISSILE AND SPACE COMPLEX (PKMTR)
aabbcc
Your satellite tracking list
Your tracking list is empty




NASA's NSSDC Master Catalog

Two Line Element Set (TLE):
1 12975U 81116A   19020.84750521 -.00000016 +00000-0 -56899-5 0  9996
2 12975 073.9819 278.8756 0097191 203.7158 221.6139 12.28011020665175
Source of the keplerian elements: AFSPC